When you browse on this site, cookies collect data to enhance your experience and personalize the content and advertising you see.
Visit our Privacy Policy to learn more. By continuing to use the site, you agree to this use of cookies and data.
  • en France
  • Liste des pays
  • À 7 jours
  • Température de l'eau
  • Carte satellitaire
  • Carte météo
  • Widgets météo
  • user-avatar
    Se connecter

    Météo par heure à Sölden

    Ce jour, 19 Avril, Vendredi

    Heure Température Précipitation Vent Pression Humidité
    00:00 -2°C° 0 mm 1 m/s 586 mmHg 92%
    01:00 -2°C° 0 mm 1 m/s 586 mmHg 91%
    02:00 -3°C° 0 mm 1 m/s 586 mmHg 91%
    03:00 -3°C° 0 mm 1 m/s 586 mmHg 90%
    04:00 -3°C° 0 mm 1 m/s 586 mmHg 90%
    05:00 -2°C° 0 mm 1 m/s 587 mmHg 86%
    06:00 -1°C° 0 mm 1 m/s 587 mmHg 83%
    07:00 -1°C° 0 mm 1 m/s 588 mmHg 80%
    08:00 +1°C° 0 mm 1 m/s 589 mmHg 74%
    09:00 +3°C° 0 mm 1 m/s 589 mmHg 68%
    10:00 +5°C° 0 mm 1 m/s 590 mmHg 63%
    11:00 +6°C° 0 mm 1 m/s 591 mmHg 59%
    12:00 +7°C° 0 mm 1 m/s 591 mmHg 56%
    13:00 +8°C° 0 mm 1 m/s 591 mmHg 53%
    14:00 +7°C° 0 mm 1 m/s 591 mmHg 53%
    15:00 +7°C° 0 mm 1 m/s 591 mmHg 53%
    16:00 +7°C° 0 mm 1 m/s 590 mmHg 53%
    17:00 +5°C° 0 mm 1 m/s 589 mmHg 59%
    18:00 +2°C° 0 mm 1 m/s 588 mmHg 65%
    19:00 -1°C° 0 mm 0 m/s 587 mmHg 72%
    20:00 -2°C° 0 mm 0 m/s 587 mmHg 73%
    21:00 -1°C° 0 mm 1 m/s 587 mmHg 74%
    22:00 -2°C° 0 mm 1 m/s 587 mmHg 75%
    23:00 -2°C° 0 mm 1 m/s 587 mmHg 75%

    Demain, 20 Avril, Samedi

    Heure Température Précipitation Vent Pression Humidité
    00:00 -3°C° 0 mm 1 m/s 587 mmHg 75%
    01:00 -3°C° 0 mm 1 m/s 587 mmHg 75%
    02:00 -3°C° 0 mm 1 m/s 587 mmHg 73%
    03:00 -3°C° 0 mm 1 m/s 586 mmHg 72%
    04:00 -3°C° 0 mm 1 m/s 586 mmHg 71%
    05:00 -2°C° 0 mm 1 m/s 587 mmHg 67%
    06:00 -1°C° 0 mm 1 m/s 587 mmHg 62%
    07:00 0°C° 0 mm 1 m/s 588 mmHg 58%
    08:00 +2°C° 0 mm 1 m/s 588 mmHg 53%
    09:00 +5°C° 0 mm 1 m/s 589 mmHg 47%
    10:00 +7°C° 0 mm 1 m/s 590 mmHg 42%
    11:00 +8°C° 0 mm 1 m/s 590 mmHg 41%
    12:00 +8°C° 0 mm 1 m/s 590 mmHg 40%
    13:00 +9°C° 0 mm 1 m/s 591 mmHg 38%
    14:00 +9°C° 0 mm 1 m/s 590 mmHg 39%
    15:00 +9°C° 0 mm 1 m/s 590 mmHg 40%
    16:00 +8°C° 0 mm 1 m/s 589 mmHg 41%
    17:00 +6°C° 0 mm 1 m/s 588 mmHg 48%
    18:00 +3°C° 0 mm 1 m/s 587 mmHg 55%
    19:00 0°C° 0 mm 0 m/s 585 mmHg 62%
    20:00 -1°C° 0 mm 0 m/s 585 mmHg 64%
    21:00 -1°C° 0 mm 1 m/s 585 mmHg 66%
    22:00 -1°C° 0 mm 1 m/s 585 mmHg 68%
    23:00 -2°C° 0 mm 1 m/s 585 mmHg 70%

    Après-demain, 21 Avril, Dimanche

    Heure Température Précipitation Vent Pression Humidité
    00:00 -2°C° 0 mm 1 m/s 585 mmHg 72%
    01:00 -2°C° 0 mm 1 m/s 584 mmHg 74%
    02:00 -2°C° 0 mm 1 m/s 584 mmHg 75%
    03:00 -2°C° 0 mm 1 m/s 584 mmHg 76%
    04:00 -2°C° 0 mm 1 m/s 583 mmHg 77%
    05:00 -1°C° 0 mm 1 m/s 584 mmHg 73%
    06:00 0°C° 0 mm 1 m/s 584 mmHg 69%
    07:00 +1°C° 0 mm 1 m/s 584 mmHg 65%
    08:00 +3°C° 0 mm 1 m/s 585 mmHg 57%
    09:00 +5°C° 0 mm 1 m/s 585 mmHg 49%
    10:00 +7°C° 0 mm 1 m/s 586 mmHg 41%
    11:00 +7°C° 0 mm 1 m/s 586 mmHg 39%
    12:00 +7°C° 0 mm 2 m/s 586 mmHg 37%
    13:00 +8°C° 0 mm 2 m/s 586 mmHg 35%
    14:00 +8°C° 0 mm 2 m/s 586 mmHg 37%
    15:00 +7°C° 0 mm 2 m/s 585 mmHg 38%
    16:00 +7°C° 0 mm 2 m/s 585 mmHg 40%
    17:00 +5°C° 0 mm 2 m/s 584 mmHg 51%
    18:00 +4°C° 0 mm 1 m/s 582 mmHg 62%
    19:00 +2°C° 0 mm 1 m/s 581 mmHg 73%
    20:00 +1°C° 0 mm 1 m/s 581 mmHg 78%
    21:00 0°C° 0 mm 1 m/s 581 mmHg 83%
    22:00 -1°C° 0 mm 0 m/s 581 mmHg 88%
    23:00 -1°C° 0.1 mm 1 m/s 581 mmHg 90%

    22 Avril, Lundi

    Heure Température Précipitation Vent Pression Humidité
    00:00 -1°C° 0.1 mm 1 m/s 581 mmHg 92%
    01:00 -1°C° 0.1 mm 1 m/s 581 mmHg 94%
    02:00 -1°C° 0 mm 1 m/s 580 mmHg 94%
    03:00 -1°C° 0 mm 1 m/s 580 mmHg 95%
    04:00 -2°C° 0 mm 0 m/s 580 mmHg 95%
    05:00 -1°C° 0 mm 1 m/s 580 mmHg 90%
    06:00 0°C° 0 mm 1 m/s 580 mmHg 86%
    07:00 +1°C° 0 mm 1 m/s 580 mmHg 81%
    08:00 +2°C° 0 mm 1 m/s 580 mmHg 70%
    09:00 +4°C° 0 mm 1 m/s 581 mmHg 59%
    10:00 +5°C° 0 mm 2 m/s 581 mmHg 48%
    11:00 +5°C° 0 mm 2 m/s 581 mmHg 47%
    12:00 +6°C° 0 mm 2 m/s 581 mmHg 46%
    13:00 +7°C° 0 mm 2 m/s 581 mmHg 45%
    14:00 +6°C° 0.1 mm 2 m/s 581 mmHg 50%
    15:00 +6°C° 0.1 mm 2 m/s 580 mmHg 54%
    16:00 +5°C° 0.1 mm 2 m/s 579 mmHg 58%
    17:00 +4°C° 0.1 mm 2 m/s 578 mmHg 66%
    18:00 +2°C° 0.1 mm 2 m/s 578 mmHg 74%
    19:00 +1°C° 0.1 mm 2 m/s 577 mmHg 82%
    20:00 -1°C° 0 mm 2 m/s 577 mmHg 86%
    21:00 +1°C° 0 mm 1 m/s 576 mmHg 90%
    22:00 0°C° 0 mm 1 m/s 576 mmHg 94%
    23:00 0°C° 0.1 mm 1 m/s 576 mmHg 93%

    23 Avril, Mardi

    Heure Température Précipitation Vent Pression Humidité
    00:00 0°C° 0.1 mm 1 m/s 575 mmHg 91%
    01:00 0°C° 0.1 mm 1 m/s 575 mmHg 90%
    02:00 0°C° 0.1 mm 1 m/s 574 mmHg 89%
    03:00 0°C° 0.1 mm 1 m/s 574 mmHg 88%
    04:00 0°C° 0.1 mm 1 m/s 574 mmHg 87%
    05:00 0°C° 0.2 mm 1 m/s 574 mmHg 85%
    06:00 +1°C° 0.2 mm 1 m/s 574 mmHg 83%
    07:00 +1°C° 0.2 mm 1 m/s 574 mmHg 81%
    08:00 +3°C° 0.2 mm 1 m/s 575 mmHg 77%
    09:00 +4°C° 0.2 mm 1 m/s 575 mmHg 72%
    10:00 +5°C° 0.2 mm 1 m/s 576 mmHg 68%
    11:00 +5°C° 0.2 mm 2 m/s 576 mmHg 66%
    12:00 +6°C° 0.2 mm 2 m/s 577 mmHg 64%
    13:00 +7°C° 0.2 mm 2 m/s 577 mmHg 62%
    14:00 +6°C° 0.3 mm 2 m/s 577 mmHg 64%
    15:00 +6°C° 0.3 mm 2 m/s 577 mmHg 66%
    16:00 +5°C° 0.3 mm 2 m/s 576 mmHg 68%
    17:00 +5°C° 0.2 mm 1 m/s 576 mmHg 74%
    18:00 +4°C° 0.2 mm 1 m/s 576 mmHg 80%
    19:00 +3°C° 0.2 mm 1 m/s 576 mmHg 86%
    20:00 +2°C° 0.1 mm 1 m/s 576 mmHg 89%
    21:00 +1°C° 0.1 mm 1 m/s 576 mmHg 91%
    22:00 0°C° 0.1 mm 0 m/s 576 mmHg 94%
    23:00 +1°C° 0 mm 1 m/s 576 mmHg 93%

    24 Avril, Mercredi

    Heure Température Précipitation Vent Pression Humidité
    00:00 0°C° 0 mm 1 m/s 577 mmHg 93%
    01:00 0°C° 0 mm 1 m/s 577 mmHg 93%
    02:00 0°C° 0 mm 1 m/s 577 mmHg 92%
    03:00 0°C° 0 mm 1 m/s 577 mmHg 92%
    04:00 0°C° 0 mm 1 m/s 578 mmHg 91%
    05:00 +1°C° 0 mm 1 m/s 578 mmHg 87%
    06:00 +1°C° 0 mm 0 m/s 579 mmHg 83%
    07:00 +2°C° 0 mm 0 m/s 580 mmHg 79%
    08:00 +4°C° 0 mm 1 m/s 581 mmHg 74%
    09:00 +6°C° 0 mm 1 m/s 582 mmHg 69%
    10:00 +7°C° 0 mm 2 m/s 583 mmHg 64%
    11:00 +7°C° 0 mm 2 m/s 583 mmHg 64%
    12:00 +7°C° 0 mm 2 m/s 583 mmHg 64%
    13:00 +7°C° 0 mm 2 m/s 583 mmHg 64%
    14:00 +7°C° 0 mm 2 m/s 584 mmHg 64%
    15:00 +7°C° 0 mm 2 m/s 584 mmHg 65%
    16:00 +8°C° 0 mm 2 m/s 584 mmHg 65%
    17:00 +6°C° 0 mm 2 m/s 583 mmHg 73%
    18:00 +5°C° 0 mm 1 m/s 582 mmHg 81%
    19:00 +4°C° 0 mm 1 m/s 582 mmHg 89%
    20:00 +3°C° 0 mm 1 m/s 582 mmHg 91%
    21:00 +3°C° 0 mm 1 m/s 582 mmHg 93%
    22:00 +2°C° 0 mm 1 m/s 582 mmHg 95%
    23:00 +2°C° 0 mm 1 m/s 582 mmHg 95%
    Voir plus